This demonstration page uses our WeatherBlox Daily Observations layout. Learn more.

Left ArrowRight Arrow

Hourly Observations for September 15, 2015

Temp ( °F °C ) Dew Point ( °F °C ) Humidity (%) Winds ( mph kmh ) Pressure ( in mb ) Visibility ( mi km ) Precip ( " mm )
12:53 am 00:53 Clear 70 21.1 60 15.6 71 71 SSE 14 22 29.74 1007 10 16 0.00 0.00
1:53 am 01:53 Clear 68 20 59 15 73 73 SSE 14 22 29.73 1007 10 16 0.00 0.00
2:53 am 02:53 Clear 67 19.4 59 15 76 76 S 12 19 29.72 1006 10 16 0.00 0.00
3:53 am 03:53 Clear 67 19.4 58 14.4 73 73 SSE 13 20 29.70 1006 10 16 0.00 0.00
4:53 am 04:53 Clear 66 18.9 56 13.3 70 70 S 13 20 29.70 1006 10 16 0.00 0.00
5:53 am 05:53 Clear 67 19.4 55 12.8 66 66 S 13 20 29.70 1006 10 16 0.00 0.00
6:53 am 06:53 Clear 67 19.4 54 12.2 63 63 S 13 20 29.70 1006 10 16 0.00 0.00
7:53 am 07:53 Sunny 67 19.4 54 12.2 63 63 S 14 22 29.71 1006 10 16 0.00 0.00
8:53 am 08:53 Sunny 69 20.6 55 12.8 61 61 S 15 24 29.73 1007 10 16 0.00 0.00
9:53 am 09:53 Sunny 74 23.3 55 12.8 52 52 S 15 24 29.73 1007 10 16 0.00 0.00
10:53 am 10:53 Sunny 79 26.1 55 12.8 44 44 S 16 26 29.73 1007 10 16 0.00 0.00
11:53 am 11:53 Sunny 84 28.9 56 13.3 38 38 S 20 31 29.72 1007 10 16 0.00 0.00
12:53 pm 12:53 Sunny 88 31.1 56 13.3 34 34 S 18 30 29.71 1006 10 16 0.00 0.00
1:53 pm 13:53 Sunny 90 32.2 56 13.3 32 32 S 18 30 29.71 1006 10 16 0.00 0.00
2:53 pm 14:53 Sunny 91 32.8 56 13.3 31 31 SSE 21 33 29.70 1006 10 16 0.00 0.00
3:53 pm 15:53 Sunny 92 33.3 55 12.8 29 29 S 25 41 29.68 1005 10 16 0.00 0.00
4:53 pm 16:53 Sunny 93 33.9 54 12.2 27 27 S 16 26 29.67 1005 10 16 0.00 0.00
5:53 pm 17:53 Sunny 91 32.8 54 12.2 28 28 S 23 37 29.68 1005 10 16 0.00 0.00
6:53 pm 18:53 Sunny 87 30.6 52 11.1 30 30 S 17 28 29.71 1006 10 16 0.00 0.00
7:53 pm 19:53 Clear 85 29.4 53 11.7 33 33 S 13 20 29.76 1008 10 16 0.00 0.00
8:53 pm 20:53 Clear 82 27.8 55 12.8 40 40 S 12 19 29.78 1008 10 16 0.00 0.00
9:53 pm 21:53 Clear 80 26.7 57 13.9 45 45 S 16 26 29.79 1009 10 16 0.00 0.00
10:53 pm 22:53 Clear 80 26.7 57 13.9 45 45 undefined N/A 29.80 1009 10 16 0.00 0.00
11:53 pm 23:53 Clear 78 25.6 57 13.9 48 48 S 16 26 29.82 1010 10 16 0.00 0.00

Powered by AerisWeather